Theta_e
319 319 320 320 321 322 321 321 321 320 321 320 317 316 322 327 318 315 331 337 323 321 329 331 341 350 345 343 344 341 339 340 340 342 343 340 339 344 348 351 354 357 356 354 354 353 351 351 351 350 349 348 348 348 349 350 349 350 352 352 352 353 354 355 355 354 354 356 356 356 357 357 357 357 357 357 357 357 357 356 356 356 356 356 356 355 354
319 319 320 321 321 321 320 321 321 322 322 321 320 320 322 325 321 322 335 338 327 325 327 324 333 345 343 343 343 338 336 340 341 344 343 339 337 340 346 350 353 354 355 355 354 354 353 352 351 350 349 348 348 348 349 349 349 350 351 350 351 354 355 354 352 352 353 355 356 356 357 357 357 357 357 357 357 357 357 357 356 356 356 357 357 356 355
320 319 320 321 320 320 320 320 321 321 322 321 321 321 321 323 323 323 330 332 329 329 331 329 336 344 340 338 338 337 339 342 341 339 339 338 340 341 343 348 350 352 353 354 354 355 354 352 352 350 348 349 348 348 348 348 349 350 350 350 351 353 354 352 351 352 353 354 356 356 356 357 357 357 357 357 357 358 357 357 357 357 357 357 357 357 357
319 318 320 319 319 321 319 318 320 320 320 320 321 322 322 322 323 323 324 323 325 330 334 332 336 339 335 334 338 339 342 348 346 342 344 346 345 342 342 345 347 349 350 351 353 353 350 350 351 349 348 349 349 349 349 348 349 350 350 352 352 352 352 352 352 353 354 355 355 356 356 357 357 357 357 358 358 358 358 358 358 358 357 358 358 357 357
319 318 319 319 319 319 317 317 321 321 321 322 321 323 324 323 323 323 321 322 327 333 335 332 331 332 332 335 341 341 345 359 365 358 356 355 349 343 342 342 343 345 346 347 350 350 349 349 349 348 348 349 349 349 348 348 349 350 350 351 352 351 352 353 353 354 354 355 355 356 356 356 357 357 357 358 359 358 359 358 358 358 358 358 358 358 358
319 318 319 320 319 318 318 320 322 322 322 322 321 322 323 322 323 324 323 326 331 334 334 334 332 331 334 340 345 347 349 362 373 367 359 357 353 350 348 345 341 342 345 346 348 349 349 348 346 346 347 348 348 348 348 348 349 349 350 350 351 352 352 353 353 354 355 356 356 357 357 356 357 358 357 358 358 358 359 358 359 359 358 358 358 358 358
318 318 320 320 320 319 320 321 326 327 324 323 322 322 324 324 323 324 325 326 331 333 332 332 331 336 347 351 352 352 351 356 364 363 358 357 357 356 356 354 351 349 348 347 348 349 348 346 345 346 347 346 347 348 349 349 348 349 349 350 351 352 353 354 354 354 356 356 357 358 358 358 358 358 358 359 358 358 359 359 359 359 358 359 359 358 358
318 320 321 321 321 320 318 322 334 337 334 333 329 322 321 325 323 324 326 325 329 333 331 330 338 347 353 354 354 355 353 352 354 354 355 356 355 355 355 355 354 354 352 348 347 347 348 346 346 346 346 346 347 348 348 349 350 351 351 352 353 354 355 355 355 356 357 358 358 359 359 359 359 358 359 359 359 359 359 359 360 360 359 359 359 358 358
318 320 320 321 320 318 319 329 340 340 340 342 338 330 329 330 326 325 329 328 327 329 326 330 342 347 346 349 353 353 352 352 351 352 352 352 352 352 351 351 353 356 356 353 348 347 348 347 346 347 347 347 348 348 349 350 351 351 353 355 355 354 355 356 356 357 357 357 359 359 359 360 360 359 359 359 360 359 359 359 359 359 360 359 359 359 358
317 318 319 321 320 318 325 337 340 338 338 340 340 337 336 334 329 326 327 328 331 331 329 333 343 346 341 340 347 352 351 351 350 350 349 349 350 349 349 350 352 355 357 354 347 345 347 347 347 348 347 347 349 351 351 350 350 352 354 356 355 353 355 356 356 356 355 355 357 359 360 360 360 360 360 360 360 360 359 359 359 359 360 360 359 360 359
315 318 319 322 322 321 330 340 339 336 336 338 338 333 331 337 341 336 328 326 329 330 334 341 347 344 335 333 343 353 351 350 349 350 350 349 348 349 350 351 351 353 356 354 348 345 349 350 350 348 348 348 350 352 352 350 351 353 355 355 353 353 354 355 355 355 354 355 356 358 359 360 360 360 361 361 361 360 359 359 360 360 360 360 360 360 359
313 317 318 321 321 320 326 336 336 334 337 339 333 325 328 339 344 343 342 338 331 331 341 347 346 340 334 335 348 352 349 348 348 348 349 348 346 348 351 352 352 353 356 356 354 354 355 355 352 349 350 351 351 353 354 353 353 355 355 353 352 352 353 354 354 354 354 355 356 358 359 359 359 360 361 361 361 360 359 359 360 360 360 360 361 360 360
313 315 317 319 319 321 326 332 335 335 336 336 330 327 334 340 340 342 347 346 342 341 344 345 345 347 351 351 351 349 347 348 347 346 347 347 347 348 350 352 353 354 354 355 355 354 355 354 352 351 353 354 355 356 356 356 356 356 354 352 352 353 353 355 356 355 355 355 356 358 359 359 359 359 360 361 361 360 360 360 360 360 360 360 360 360 360
313 314 316 317 319 327 332 333 335 334 330 330 332 335 338 338 338 342 346 347 347 344 341 344 351 352 350 348 348 348 347 346 347 346 346 346 347 349 350 350 352 353 353 353 352 352 353 353 353 352 354 356 358 358 359 359 358 356 354 352 352 352 352 354 356 356 357 357 357 358 360 360 360 359 360 360 361 361 361 361 361 361 361 361 360 360 360
314 315 316 317 323 332 335 334 335 336 333 334 336 337 337 337 339 343 346 347 348 344 340 347 352 349 347 347 347 347 346 345 345 346 346 346 347 348 349 349 350 351 351 350 351 351 352 353 354 354 355 358 359 359 360 359 355 354 354 354 353 353 353 355 356 358 359 359 358 359 361 361 361 361 361 361 362 362 362 361 362 361 361 361 361 360 360
314 315 316 321 330 335 334 334 337 339 335 334 334 335 337 338 340 344 346 346 346 345 344 347 349 348 348 347 345 345 345 345 345 345 346 346 346 347 349 349 349 350 349 348 349 349 350 352 354 355 357 359 358 357 357 356 355 355 355 353 353 355 355 355 357 358 359 359 359 361 361 362 361 362 362 362 362 363 362 362 362 361 361 361 361 360 360
320 320 323 331 337 335 333 334 336 335 332 331 330 333 337 339 341 344 347 346 345 345 346 347 347 346 346 345 345 345 344 344 345 345 345 345 346 347 347 348 348 348 347 347 347 347 349 350 351 353 355 356 355 354 355 356 359 360 359 357 355 355 355 356 357 356 357 359 359 360 362 362 362 363 363 363 363 363 363 362 362 362 362 361 361 361 360
323 326 330 334 336 334 333 332 331 331 330 329 329 331 334 337 339 342 345 345 345 344 345 345 345 345 345 345 345 344 344 344 344 344 344 344 345 346 346 347 347 347 347 347 346 346 347 348 349 350 351 352 352 352 353 356 359 361 362 362 360 358 358 357 356 356 357 357 357 359 360 361 362 363 363 363 364 363 363 362 362 362 362 361 362 361 360
325 330 334 335 334 334 333 332 331 330 329 328 328 330 332 334 336 339 342 344 344 343 344 345 344 344 343 344 344 344 344 344 343 343 344 343 344 345 346 346 346 347 347 347 346 346 346 347 348 348 348 348 349 349 351 353 356 358 360 362 362 362 361 360 359 358 357 356 356 357 358 359 360 362 362 363 363 363 363 362 362 362 362 361 361 361 361
324 327 330 333 333 332 332 333 332 331 330 328 328 328 330 333 335 336 338 340 341 342 341 342 343 343 343 343 344 344 344 344 344 344 343 343 344 345 345 345 346 347 347 347 346 346 346 346 347 347 347 347 347 347 348 350 352 354 355 357 358 359 360 361 360 360 359 358 357 357 357 357 357 359 360 361 362 362 363 363 363 362 362 362 361 361 361
320 321 325 331 334 333 332 332 331 330 330 329 329 328 329 332 334 335 336 336 338 339 340 340 341 342 343 343 344 344 344 344 343 343 343 344 344 344 345 345 345 346 347 346 346 346 346 346 346 346 346 345 345 346 346 347 349 350 351 351 352 352 353 354 354 354 356 358 358 358 358 358 358 358 358 358 360 361 361 362 362 362 362 362 362 361 361
319 321 327 334 336 336 333 331 330 330 329 329 329 329 329 330 332 333 334 333 334 335 336 339 342 343 342 343 343 343 343 343 343 343 343 343 344 345 345 344 344 345 346 345 345 345 345 345 345 345 344 344 344 344 344 345 347 348 348 349 349 348 348 348 347 347 349 350 351 351 352 351 352 352 350 350 353 355 357 358 359 360 361 361 361 361 361
321 323 327 332 334 334 332 330 329 329 329 329 329 329 329 329 329 330 330 331 332 332 333 336 340 341 341 341 342 342 342 342 342 343 343 343 343 344 344 344 344 344 344 344 345 344 344 344 344 344 344 344 343 343 343 344 344 345 346 347 346 345 344 343 342 343 344 343 343 344 344 344 345 345 345 343 342 342 344 346 349 352 356 358 360 360 360
321 322 325 329 332 332 329 328 328 329 329 329 330 329 328 328 328 328 328 329 331 331 332 333 335 337 338 338 339 340 340 339 339 340 340 341 341 341 342 343 343 343 343 344 343 343 343 343 343 343 343 343 343 343 343 343 343 344 344 344 344 344 343 342 342 342 342 342 342 342 343 344 344 344 345 345 342 338 336 335 336 340 344 349 352 354 355
320 322 323 327 329 329 327 327 328 328 328 329 329 329 328 328 327 327 327 328 328 329 331 331 331 332 332 333 334 335 335 335 337 338 339 338 338 339 340 341 341 342 342 342 342 343 343 343 343 343 343 343 343 343 342 343 343 343 344 344 344 343 343 343 343 342 343 343 343 343 344 343 342 342 342 343 342 339 335 332 331 331 332 336 339 341 344
321 323 324 326 327 327 327 328 328 328 327 327 327 326 326 326 326 326 326 326 325 326 328 329 329 329 329 330 330 331 331 332 335 338 338 337 337 338 339 340 340 340 341 341 342 343 343 343 343 343 343 343 343 343 343 343 343 343 343 343 344 343 343 343 343 342 342 343 343 343 342 341 340 341 340 340 340 338 335 334 332 328 329 331 332 334 338
321 323 325 327 328 328 329 330 329 328 326 325 325 325 324 325 326 326 326 326 326 325 326 328 329 329 329 329 330 331 332 333 334 336 337 337 338 338 338 340 340 340 341 341 342 342 342 342 342 342 342 342 343 343 344 344 343 343 343 343 343 343 342 342 343 343 342 342 342 342 341 340 340 341 342 342 341 338 336 335 332 327 328 330 329 329 333
321 325 327 329 330 329 329 328 328 327 326 325 324 324 325 325 326 326 326 326 326 326 326 327 328 329 329 329 328 329 330 330 331 332 333 335 336 337 338 339 339 340 341 341 341 341 342 342 341 342 342 342 343 344 344 344 343 343 343 342 342 342 342 342 342 342 341 341 341 340 340 339 339 340 341 342 341 339 336 335 332 328 327 326 324 322 323
324 327 328 328 328 328 327 328 327 326 325 325 324 325 325 325 325 326 326 326 326 326 327 326 327 327 327 328 328 328 328 329 330 331 332 334 335 336 337 338 338 339 340 341 341 341 341 341 341 341 341 341 342 343 343 344 343 342 342 341 341 341 341 340 341 340 340 340 338 338 338 338 338 339 340 339 339 338 337 335 332 329 325 323 321 318 316
327 327 327 326 326 326 327 328 328 327 326 325 325 325 324 325 326 327 327 326 326 327 327 327 327 327 328 328 329 329 329 330 331 331 333 333 334 335 337 337 337 337 338 339 340 341 341 341 340 341 341 342 341 342 342 343 343 342 341 340 339 339 339 339 340 341 341 339 338 338 338 338 337 337 337 336 336 336 336 333 331 328 325 323 322 321 319
327 327 327 326 327 327 327 328 328 328 327 327 326 325 325 326 326 327 327 327 327 327 327 327 327 328 328 328 329 330 330 331 331 331 332 332 333 334 335 335 335 335 336 337 338 339 339 339 339 340 340 340 340 341 341 341 342 342 341 341 340 339 339 339 340 340 340 339 339 338 338 337 336 335 335 335 334 334 333 331 329 327 325 324 324 324 324
327 327 326 327 327 327 327 327 328 328 328 327 327 326 326 327 327 328 328 328 327 328 327 327 328 328 329 329 330 330 330 330 331 331 331 331 332 333 333 333 333 334 334 335 336 336 337 338 338 338 338 339 339 340 340 341 342 342 342 341 341 341 339 339 339 340 340 340 339 338 337 336 336 334 333 333 333 332 331 329 327 325 325 323 323 325 327
328 328 327 327 327 327 328 328 328 328 328 328 327 327 327 328 328 327 327 328 328 327 328 328 328 328 329 329 329 330 330 330 330 330 330 331 331 332 332 332 333 333 333 333 334 335 336 337 337 337 337 338 338 339 339 340 341 341 342 342 342 341 340 339 339 340 340 339 338 338 337 335 335 334 333 332 332 331 330 328 325 324 324 324 324 326 328
328 328 328 327 327 328 328 328 327 327 328 328 328 327 328 328 328 327 328 328 327 327 327 328 327 327 327 327 327 328 328 328 328 328 329 330 330 331 331 332 332 332 332 333 333 334 336 337 338 337 337 337 337 337 337 338 339 340 341 341 342 341 341 340 339 339 339 339 338 338 337 336 335 334 333 332 331 330 328 326 325 325 324 324 325 326 327
327 327 327 327 327 328 328 328 327 328 328 328 328 328 328 328 328 328 328 327 327 327 327 326 325 325 325 325 325 325 325 326 326 327 328 328 329 330 331 332 332 332 332 332 333 333 334 335 337 338 338 339 338 337 336 338 339 338 338 339 340 341 340 340 339 338 337 337 338 338 337 336 335 334 333 332 331 329 327 326 325 325 325 325 325 326 326
326 327 327 327 327 327 327 327 328 327 327 328 328 327 328 328 328 327 327 327 327 327 326 325 324 324 325 325 325 325 324 325 326 327 327 328 329 330 330 331 332 332 331 331 332 333 333 332 333 334 336 337 338 337 335 336 337 336 336 337 338 339 338 339 339 338 337 336 336 336 336 336 336 335 334 334 333 330 328 327 325 325 325 325 326 326 327
323 324 325 326 326 326 326 326 326 326 326 327 327 326 327 327 327 326 326 326 326 326 325 325 325 324 325 324 325 325 325 325 325 326 327 327 328 328 328 329 329 330 330 331 331 332 332 330 330 332 333 335 336 335 334 333 334 335 335 335 336 336 337 337 337 337 337 336 335 335 335 336 336 336 335 335 335 334 331 328 326 325 325 325 327 328 328
321 322 323 323 324 324 324 325 325 325 325 325 325 325 325 325 325 325 325 324 324 323 323 323 323 324 324 324 325 325 325 325 324 325 326 327 327 326 326 326 327 328 329 330 330 331 331 329 328 331 333 333 333 333 332 331 332 334 334 334 334 334 335 335 335 335 336 335 335 335 335 334 335 335 334 333 334 333 332 330 328 327 325 325 326 327 327
320 320 321 322 322 322 323 323 324 324 324 323 323 323 323 323 322 322 321 321 320 320 321 321 322 323 323 324 324 324 324 324 324 324 325 326 326 326 325 325 326 327 327 328 328 329 329 328 328 330 331 330 330 330 329 330 331 332 332 333 333 333 333 333 333 333 333 333 333 333 333 333 333 333 333 332 331 332 331 330 328 327 326 325 325 325 326
319 319 319 321 321 321 322 322 322 322 322 322 321 321 321 320 320 320 319 319 319 319 320 320 321 321 322 322 322 323 323 323 324 324 325 325 325 325 324 324 325 326 325 325 326 326 326 326 327 327 327 327 327 327 327 328 329 330 330 330 330 330 330 330 330 330 330 330 330 330 331 332 332 331 330 330 329 329 329 329 329 328 327 326 324 324 324
317 318 318 319 319 320 319 319 319 319 319 319 318 318 317 317 317 317 317 318 318 318 319 320 320 320 320 320 320 321 321 322 322 323 323 323 324 323 322 323 324 324 322 321 322 323 323 323 324 324 325 324 324 325 325 326 327 328 328 328 328 328 328 327 327 327 327 327 327 328 328 329 329 329 329 329 328 327 326 327 328 328 327 326 325 323 323
317 317 317 317 317 317 317 317 317 316 316 316 316 316 315 315 315 315 315 315 316 316 317 318 318 318 319 319 319 319 320 320 321 321 321 321 322 322 322 322 323 322 320 319 320 321 321 321 321 321 321 321 322 323 324 323 323 324 325 325 325 325 325 325 325 325 325 325 325 325 325 326 327 327 328 328 327 327 326 326 326 325 325 324 325 324 323
316 316 316 316 316 316 316 315 315 314 314 314 314 314 314 314 314 314 315 314 314 314 314 315 315 316 316 316 317 317 318 319 320 320 320 320 320 321 321 321 321 320 319 319 320 320 320 319 318 318 318 319 320 321 321 320 319 319 320 321 321 321 321 321 321 321 322 322 322 322 323 323 324 325 325 326 326 326 325 325 324 323 322 323 323 323 322
316 316 315 315 315 314 314 314 313 313 312 312 311 311 312 312 312 313 313 313 313 313 313 313 313 313 313 313 314 314 315 316 317 319 319 319 319 320 320 320 320 319 319 319 319 318 318 317 316 316 316 317 317 317 317 316 316 316 317 317 317 317 317 317 317 317 317 317 318 318 319 319 320 321 322 323 323 323 323 323 323 322 321 321 321 321 321
314 314 314 314 313 313 313 312 312 311 311 310 310 310 310 310 310 310 311 311 311 311 311 311 311 311 312 312 312 312 312 312 314 316 317 317 317 318 319 319 318 318 318 318 317 317 316 314 314 314 314 315 315 315 314 314 314 314 314 314 315 315 315 315 314 314 314 314 314 314 315 315 316 316 317 317 318 318 318 319 320 320 320 320 320 320 320
313 313 313 313 312 312 312 312 311 311 310 310 310 309 309 309 309 309 309 309 309 309 309 309 309 309 310 310 311 311 311 311 311 313 315 315 316 317 317 317 317 316 315 315 316 315 313 311 310 311 312 312 312 312 312 312 312 313 313 313 313 313 313 313 313 313 312 312 312 312 312 312 312 312 312 312 312 312 313 314 314 315 315 317 318 318 319
312 311 312 312 312 311 311 311 310 310 310 309 309 308 308 308 307 307 307 307 307 307 307 308 308 308 308 309 310 311 312 311 311 311 311 313 314 315 315 315 315 314 313 312 311 311 309 307 306 307 307 307 308 309 310 310 310 310 311 311 311 311 311 311 311 311 311 311 310 310 310 310 309 309 308 308 308 308 308 309 309 309 310 312 314 315 316
311 311 311 311 311 311 311 311 310 310 309 309 308 307 307 307 307 306 306 306 306 306 306 306 307 307 307 308 308 309 310 311 310 310 310 310 311 312 312 312 311 310 311 310 308 306 304 303 303 303 303 303 305 307 308 308 308 309 309 309 309 309 309 309 309 309 309 309 309 309 309 309 308 308 307 306 305 305 305 304 305 306 306 308 309 310 312
311 311 311 311 311 311 311 311 311 310 310 309 308 308 307 306 306 306 306 306 306 306 306 306 306 306 306 306 307 307 308 308 309 308 308 308 309 309 309 309 307 307 309 310 309 306 303 301 301 301 302 302 303 305 305 306 306 307 307 307 307 307 307 307 307 307 307 307 307 307 307 307 307 307 306 305 304 303 303 303 303 304 305 305 305 306 307
311 311 311 311 311 311 310 310 310 309 309 309 308 308 307 306 305 305 305 305 305 305 305 305 305 305 305 305 305 306 306 307 307 307 306 307 307 307 307 307 306 305 306 307 308 308 306 304 302 302 303 303 303 303 304 304 304 304 305 306 305 305 304 304 304 304 305 305 305 305 305 305 305 305 305 304 304 303 302 302 302 303 303 303 303 303 303
310 311 311 310 310 310 309 309 309 308 308 307 307 306 306 305 305 304 303 304 304 305 305 305 305 305 305 304 304 304 305 306 306 305 305 305 305 305 305 306 305 305 304 304 305 307 307 307 305 304 303 303 303 302 302 302 303 303 303 304 304 303 303 302 302 301 301 302 302 302 301 302 302 302 302 302 302 302 301 301 300 300 300 300 301 301 301
310 309 309 310 309 308 308 308 308 307 307 306 306 305 304 304 303 303 302 302 302 303 303 304 304 304 304 304 304 303 304 304 304 304 304 304 304 304 304 304 304 304 304 304 304 304 305 305 305 304 303 303 303 302 301 301 301 302 302 302 302 301 300 300 300 300 300 300 300 299 299 299 300 300 299 299 299 299 299 299 298 298 297 298 298 298 299
Wind_Speed
7 8 10 9 6 7 9 10 12 13 17 22 23 20 12 9 9 13 4 9 12 12 9 8 5 5 7 7 7 6 3 2 3 3 4 6 7 7 8 9 10 11 12 13 13 14 14 16 19 23 25 28 31 30 28 28 30 30 30 34 36 33 32 36 40 43 45 41 38 38 36 35 38 37 34 33 33 33 34 35 34 34 33 32 34 38 41
7 8 9 8 5 6 9 12 13 14 15 17 18 19 18 15 15 14 5 9 13 12 13 14 9 5 5 3 3 4 3 3 4 4 5 7 7 8 9 10 11 12 12 12 12 13 13 14 18 22 24 27 30 31 29 30 31 30 31 37 40 34 33 42 46 45 44 40 38 39 38 37 38 39 35 33 33 33 34 35 34 34 34 32 31 34 38
6 6 6 6 7 8 10 12 13 14 14 14 14 16 17 16 16 16 10 8 10 9 9 11 8 3 1 3 6 8 6 4 3 3 5 6 6 7 8 8 9 10 10 10 11 12 14 16 19 22 26 28 29 29 29 31 32 32 33 38 40 38 39 45 45 41 41 39 38 39 40 38 38 38 37 35 34 34 35 35 34 34 35 33 31 31 33
4 2 3 8 12 11 13 15 16 15 13 12 11 11 13 14 13 15 14 11 9 5 4 7 6 4 5 8 8 7 6 3 3 4 6 7 6 5 5 6 8 9 11 11 12 14 15 17 19 24 27 27 26 27 29 31 31 31 32 35 38 41 42 40 40 39 39 39 38 39 40 39 38 39 38 35 33 34 34 34 34 34 34 34 33 31 30
4 3 4 9 11 9 11 12 12 14 15 14 12 10 12 14 13 12 12 9 7 6 6 7 8 8 11 11 8 6 6 5 4 5 6 6 6 6 5 6 8 10 11 12 13 14 15 17 22 27 27 25 27 31 33 32 29 29 31 35 37 40 39 36 38 39 38 38 39 38 40 40 38 38 38 36 35 34 33 33 33 33 34 33 33 33 32
4 6 7 8 7 8 7 4 3 9 14 16 16 15 14 14 13 11 9 8 8 8 9 9 11 13 12 9 6 5 4 4 4 5 5 5 5 6 6 7 8 9 9 10 12 14 17 21 25 25 25 26 29 29 27 29 31 31 34 35 36 38 38 37 39 39 37 39 39 38 39 39 36 37 37 36 36 34 32 32 32 33 35 34 34 35 34
5 6 6 7 9 6 6 7 4 4 8 10 15 20 18 17 16 13 12 13 10 8 10 12 14 12 6 1 2 4 4 4 4 4 4 4 4 5 5 6 7 7 8 9 10 13 17 21 20 20 22 25 24 21 22 27 31 33 34 35 34 34 34 35 38 38 38 39 36 34 34 34 34 35 35 35 35 33 31 31 32 34 35 35 36 36 35
4 3 5 8 4 7 14 10 6 5 4 3 6 15 18 18 17 14 13 14 11 7 11 12 8 3 3 4 2 3 4 4 4 4 4 3 3 4 5 7 8 8 9 10 11 11 14 17 18 18 21 22 21 20 22 25 26 28 29 28 28 28 29 31 34 35 35 35 32 30 30 31 32 33 33 34 34 32 31 31 31 32 34 35 36 35 35
5 5 7 7 6 12 12 4 5 4 3 4 4 6 8 10 12 12 11 12 12 10 9 7 2 3 3 3 3 4 5 5 5 4 3 3 3 4 5 7 8 9 10 11 11 11 13 17 18 19 20 20 20 20 21 22 23 24 24 23 25 29 30 30 32 34 35 34 31 29 29 30 32 33 34 35 34 33 33 32 31 32 34 35 35 35 37
5 6 8 8 7 7 3 3 3 3 3 4 4 3 4 6 9 12 13 13 13 10 7 6 5 5 4 6 5 6 7 6 5 4 3 2 2 3 5 7 7 9 10 10 10 10 12 16 18 19 20 21 20 19 20 22 24 23 22 24 29 33 33 32 34 38 41 40 36 32 31 33 34 34 34 33 33 34 35 33 32 33 33 33 33 34 37
7 7 8 8 7 5 2 3 2 6 5 3 4 4 4 2 2 7 13 16 16 12 10 10 8 7 7 9 6 7 9 7 6 5 3 1 2 3 4 6 6 8 7 4 4 7 9 11 15 20 22 22 22 21 21 23 23 23 25 30 35 38 38 38 39 40 41 41 38 34 32 33 33 32 32 32 30 32 35 34 33 32 31 31 32 33 35
9 9 8 7 5 5 4 2 4 7 6 1 4 7 3 4 9 9 8 12 14 11 10 11 10 9 8 6 3 9 10 8 6 4 3 2 3 3 5 6 6 7 7 7 6 5 2 2 8 16 19 19 20 18 17 19 20 20 23 28 31 34 34 34 34 36 37 37 37 35 34 36 35 32 31 31 30 31 34 33 30 30 31 32 32 32 34
10 10 9 7 5 5 7 6 6 7 5 3 6 6 2 6 11 11 9 12 12 5 6 10 9 6 2 3 7 11 10 8 7 5 3 3 3 4 6 8 8 9 11 12 12 10 7 4 3 11 15 15 15 13 13 14 14 14 16 18 20 22 24 23 24 28 32 35 37 36 33 34 35 33 30 29 28 29 30 29 28 30 32 32 32 33 32
9 9 8 8 6 3 3 6 5 3 4 5 3 4 6 9 12 13 11 12 11 7 6 7 4 5 7 8 10 11 9 8 7 6 5 5 5 6 8 10 10 11 12 14 14 13 10 8 3 6 11 11 9 9 9 8 6 7 11 14 18 21 24 24 24 26 30 33 35 33 28 27 30 31 29 27 26 26 26 27 29 31 31 30 31 32 31
8 8 9 9 6 4 3 4 3 3 4 3 4 7 10 9 10 13 13 11 9 8 7 3 2 7 10 10 10 11 9 8 7 6 6 6 7 8 9 11 11 11 12 13 14 14 12 11 9 7 9 8 8 8 6 4 2 2 5 9 14 19 22 24 24 25 26 28 29 27 24 24 27 28 26 25 25 25 25 27 29 30 30 30 30 30 30
8 8 8 5 2 5 5 4 4 3 2 4 4 6 9 9 9 10 10 10 10 7 5 4 5 6 8 10 11 11 9 8 8 7 7 7 7 8 9 10 11 12 12 13 13 13 13 14 13 12 12 12 12 10 7 4 3 3 2 5 10 14 18 20 21 21 21 23 24 23 22 23 25 25 24 24 24 25 26 28 29 30 31 30 30 31 31
7 7 6 2 3 6 5 5 3 2 2 2 2 5 7 7 8 7 7 9 8 4 5 8 7 6 7 10 11 11 10 9 8 8 8 8 8 8 10 11 12 12 12 13 14 14 14 15 15 14 14 14 14 11 7 5 5 4 2 4 6 10 13 15 17 18 17 18 20 20 20 21 23 23 23 23 24 25 26 28 30 31 32 31 31 32 31
9 10 8 5 5 7 6 4 2 1 0 1 2 3 4 6 8 6 6 7 5 3 6 8 8 8 9 10 10 10 10 9 8 8 9 9 9 9 10 11 12 12 12 13 13 14 14 15 15 15 14 14 14 11 8 8 8 6 5 4 4 4 6 8 11 13 14 15 17 18 19 20 21 22 23 23 24 24 25 28 31 32 31 31 30 30 31
8 6 6 6 6 7 7 6 4 2 2 4 3 3 4 6 7 6 5 4 2 3 6 7 9 9 10 10 10 10 10 9 9 9 9 10 10 9 10 12 12 12 12 11 12 13 13 13 14 14 14 13 12 11 10 10 10 9 8 7 6 5 3 2 3 5 7 10 11 13 15 18 20 21 22 23 24 24 26 30 31 30 30 28 27 29 32
6 7 9 8 6 5 6 6 4 3 3 5 5 5 5 5 4 6 7 3 0 4 6 8 9 9 10 10 10 10 9 9 9 9 9 10 10 10 11 12 13 13 12 11 12 13 13 13 14 14 14 14 12 11 11 10 10 10 11 10 9 8 6 4 3 1 1 4 5 7 10 12 15 17 18 20 23 25 29 31 30 30 30 29 30 34 35
7 11 12 10 8 5 5 6 5 4 4 6 7 7 6 5 4 6 8 6 3 3 6 9 10 9 9 10 11 11 10 10 9 10 10 11 11 12 13 14 15 15 14 14 15 15 14 14 15 15 16 14 13 12 12 11 10 10 10 9 10 9 8 7 6 4 2 1 2 4 6 7 10 12 14 17 20 23 27 30 31 33 34 33 35 38 39
7 8 9 10 7 2 4 7 6 7 7 8 10 9 7 6 6 6 7 7 6 5 5 7 9 10 10 11 12 11 11 11 11 11 12 12 13 15 16 17 18 18 18 18 18 17 17 16 16 17 17 16 14 13 12 11 10 10 9 9 10 9 8 8 7 6 5 5 4 4 3 4 5 8 11 14 17 22 28 31 34 36 39 41 42 41 39
10 10 10 9 4 2 5 6 6 8 8 11 12 10 8 7 7 7 7 8 8 8 8 8 8 9 8 9 11 11 10 10 10 11 12 12 13 15 16 17 18 19 20 20 20 20 20 20 19 18 18 18 17 15 14 13 12 12 11 11 11 11 10 9 8 8 7 7 7 6 4 3 3 5 8 9 10 13 19 26 31 36 40 45 49 50 46
15 14 11 10 7 4 7 8 9 11 11 12 13 11 9 8 7 7 8 9 9 8 9 10 9 9 8 8 9 10 11 11 11 11 13 14 14 14 15 16 17 18 19 19 20 19 20 20 20 19 19 19 18 17 16 15 15 15 14 13 12 11 11 10 10 10 10 9 8 6 3 2 2 3 5 6 8 12 14 15 19 25 32 39 45 51 53
15 13 11 11 7 8 11 11 11 12 13 13 12 11 9 8 7 8 8 9 9 9 8 8 9 10 9 8 8 9 10 10 12 14 15 16 16 16 17 17 17 18 18 18 18 18 19 19 19 19 20 19 19 18 17 16 15 16 16 16 14 12 11 11 11 11 10 10 9 6 4 5 5 6 6 6 8 13 18 19 17 16 20 26 32 38 45
14 13 12 11 8 10 10 9 11 13 14 14 12 11 10 9 9 10 10 10 9 9 8 7 8 10 11 9 7 8 9 11 15 17 16 15 15 16 17 17 17 18 18 18 18 18 19 19 18 19 19 18 17 17 16 15 15 15 15 15 14 13 12 11 10 10 9 8 7 5 5 6 6 6 6 6 5 8 13 16 16 15 15 18 21 24 30
10 11 10 9 10 8 5 8 11 12 14 15 13 11 10 9 8 9 10 10 10 10 9 7 6 8 10 10 9 8 10 14 16 17 16 16 17 17 18 19 19 19 19 19 18 19 19 19 18 19 18 17 16 15 14 14 14 14 14 13 13 13 13 11 10 10 9 8 6 6 6 6 6 6 7 7 6 6 8 11 12 13 18 23 23 22 24
8 9 9 10 8 8 12 13 13 13 15 14 12 10 10 9 7 9 11 11 11 10 9 8 7 8 10 9 8 8 9 12 13 13 14 15 17 18 18 19 20 20 21 20 19 19 19 18 18 18 18 17 16 14 13 13 14 14 14 13 12 12 12 11 10 10 9 8 7 7 8 7 7 8 9 10 11 11 10 10 9 11 17 21 20 19 20
7 7 7 7 6 13 16 13 13 16 16 12 11 11 10 9 8 10 12 10 8 8 7 7 8 9 9 9 8 7 7 9 12 14 15 14 14 14 14 16 18 21 23 22 20 19 19 19 18 18 17 17 17 15 14 14 14 14 13 12 11 10 9 9 9 9 9 8 7 8 8 8 8 9 10 11 12 12 12 12 11 13 16 16 17 18 19
6 8 8 8 9 14 14 12 14 17 14 10 10 12 12 8 7 8 10 8 7 8 7 6 7 9 10 9 8 7 6 8 13 18 20 19 18 16 15 16 17 18 19 20 20 20 19 20 19 18 15 15 15 15 14 14 13 13 12 11 10 10 9 8 7 8 8 8 8 8 8 8 9 10 10 11 11 11 11 12 13 14 15 17 22 24 24
8 9 12 13 12 13 12 12 14 15 11 8 8 12 13 10 8 8 8 7 7 9 9 8 9 11 11 10 10 10 10 12 15 19 21 20 19 18 19 19 18 16 16 18 20 19 19 19 19 17 15 16 16 15 14 13 12 12 12 11 11 11 11 10 8 8 8 8 7 7 8 8 9 10 10 10 11 10 10 11 12 11 13 17 20 23 26
10 11 13 13 12 13 12 10 11 14 11 7 6 9 12 11 9 9 8 6 7 9 9 9 10 11 10 11 12 13 14 15 17 19 19 19 18 18 19 20 21 20 19 19 19 18 17 15 15 15 17 18 18 16 14 13 12 12 13 12 11 11 12 11 10 8 9 10 9 8 8 8 9 10 11 10 10 10 9 11 11 11 13 17 21 21 23
9 10 12 12 12 14 12 10 11 13 12 8 6 6 8 11 10 9 7 6 7 8 8 8 10 11 11 11 12 12 13 15 16 16 17 17 17 17 17 17 19 21 21 19 19 19 17 14 13 15 18 19 18 17 16 16 14 13 12 11 10 10 11 12 12 10 9 11 11 9 8 8 8 9 10 9 9 10 10 11 12 12 13 17 22 20 20
6 6 8 9 9 11 12 12 13 13 12 9 8 7 7 9 10 9 8 8 8 8 9 9 10 12 12 12 12 13 12 11 11 11 13 15 15 15 15 16 18 21 22 21 20 20 19 16 13 14 16 17 17 17 17 16 15 14 13 11 10 10 11 12 13 12 11 12 11 10 8 8 8 8 9 8 8 9 10 10 11 11 13 16 19 19 18
8 8 9 8 8 10 11 11 12 13 13 12 11 9 8 8 10 10 10 9 8 9 10 12 13 15 15 14 14 14 13 11 10 11 12 14 13 13 15 17 18 20 22 23 22 20 19 17 15 13 13 15 16 17 17 16 14 15 15 13 11 10 11 11 12 11 11 11 11 11 10 10 9 8 9 9 8 9 9 9 9 9 11 13 16 17 17
9 10 10 9 9 11 11 10 9 11 12 12 12 11 11 12 13 13 12 10 10 11 13 15 16 17 16 14 13 13 14 13 13 13 12 12 12 14 17 17 17 17 18 19 20 19 18 19 20 18 15 15 16 18 18 17 15 15 16 14 11 10 10 10 10 10 9 10 11 11 11 10 10 10 10 10 9 9 8 7 7 9 11 12 14 14 15
12 11 10 10 10 12 12 10 10 11 12 12 12 13 13 13 13 13 13 13 14 14 14 15 15 14 14 14 16 16 16 16 15 14 12 12 14 17 18 18 17 16 13 13 16 17 18 22 25 24 19 17 17 18 18 17 15 14 14 13 12 12 11 10 10 9 9 9 10 10 11 11 10 11 11 11 10 9 7 6 6 7 8 10 11 11 10
15 14 13 13 13 12 13 15 17 17 15 13 13 14 15 16 16 17 16 16 16 15 15 15 15 15 15 15 16 17 18 17 16 16 15 16 18 21 22 20 18 15 12 11 14 16 18 22 25 24 21 18 18 18 18 17 16 14 13 12 13 13 13 11 11 11 10 10 10 10 10 10 10 10 11 11 11 10 9 6 5 6 6 7 8 9 8
16 15 15 15 14 14 15 17 19 19 18 15 13 15 18 20 21 20 18 17 18 18 17 16 15 15 15 15 15 16 17 17 17 17 17 17 20 22 22 21 20 18 16 16 17 18 20 22 21 20 19 18 18 18 20 20 18 16 15 14 15 15 14 13 12 12 12 12 11 11 10 10 10 10 10 9 9 9 9 8 7 6 5 5 6 7 7
14 14 14 14 14 14 14 14 15 19 22 22 18 17 18 20 20 18 17 17 19 20 19 18 16 15 14 14 14 15 16 18 18 17 16 17 19 19 18 19 21 21 21 22 21 21 23 23 21 18 19 19 18 19 22 21 19 17 17 17 16 16 15 15 15 15 15 15 15 14 13 12 11 10 9 8 7 7 7 6 6 5 4 3 4 5 6
14 14 14 14 13 13 14 15 17 20 24 25 23 22 22 22 21 18 16 17 20 22 21 18 16 14 13 14 15 16 17 18 20 19 18 18 17 15 13 15 18 21 24 27 26 24 24 25 22 19 18 19 19 21 23 22 19 17 17 18 17 17 17 17 17 17 17 16 16 16 15 14 13 12 11 10 9 7 6 4 3 2 1 1 3 5 6
15 16 15 14 12 14 16 18 18 19 21 23 23 23 23 22 21 20 18 18 21 23 22 20 19 18 17 16 17 17 17 18 19 21 23 23 20 16 13 13 18 23 28 30 27 24 23 23 23 22 21 21 22 23 25 23 20 17 17 17 17 17 17 18 17 17 17 17 17 17 16 15 14 14 14 13 11 9 8 6 5 3 2 0 3 6 7
15 14 12 11 11 14 17 18 18 17 18 20 21 22 22 21 20 20 20 19 19 20 20 21 21 21 20 18 17 15 15 15 17 19 22 24 23 22 18 16 19 25 28 27 24 23 23 22 24 26 28 27 27 28 28 27 24 21 19 18 18 17 18 18 18 17 17 17 17 16 16 16 15 15 15 15 15 14 13 11 9 7 5 3 0 4 7
17 15 12 11 13 15 17 18 18 17 16 17 20 22 22 22 20 20 19 19 19 19 19 19 20 19 19 19 17 15 13 13 14 14 15 17 19 21 21 19 20 23 26 24 22 23 23 23 26 31 33 33 33 34 34 30 27 25 23 22 20 20 19 19 19 19 18 17 17 16 16 16 16 15 15 15 15 16 16 15 13 11 8 5 3 4 8
19 17 17 18 19 19 18 17 17 15 17 21 24 23 22 21 21 21 20 20 20 20 20 21 22 21 19 18 17 16 16 16 16 14 12 12 13 15 17 19 20 22 24 24 23 22 24 26 30 34 35 35 37 38 35 30 27 26 25 24 23 22 21 21 20 20 20 19 19 18 18 17 17 17 17 16 16 16 16 17 18 18 16 13 10 9 10
18 19 21 22 21 18 17 16 16 18 21 22 21 20 19 19 20 20 21 21 21 20 20 21 22 22 21 18 16 15 16 19 20 18 16 13 13 14 16 18 20 23 25 25 22 21 23 28 32 33 34 36 36 34 30 27 25 24 24 23 22 22 21 21 21 21 21 21 21 21 20 20 20 21 22 22 21 20 19 18 19 21 23 21 19 18 16
16 17 19 19 18 17 18 20 21 21 20 16 12 12 15 18 19 19 19 20 20 20 20 20 20 20 20 19 17 14 12 13 16 18 17 14 13 14 17 18 20 22 24 25 24 23 25 29 31 31 33 34 32 28 25 24 24 23 22 21 21 20 20 20 19 20 21 21 21 22 22 22 22 23 26 28 27 26 25 23 23 24 26 26 25 22 20
15 15 15 15 15 16 18 20 20 17 14 12 11 11 13 16 18 19 18 18 19 20 20 20 19 19 19 19 18 17 14 11 10 12 14 14 12 13 15 17 20 22 22 23 24 26 27 29 29 30 32 32 30 25 22 22 22 21 21 21 20 20 19 19 18 18 18 19 19 19 20 21 21 22 24 26 27 28 29 30 29 29 30 30 28 27 25
15 15 15 15 15 15 15 15 14 11 10 11 12 12 12 14 17 18 17 16 17 17 17 18 18 18 19 18 18 17 17 15 11 10 11 14 14 15 15 17 21 22 20 18 18 21 25 27 29 29 29 28 26 24 22 22 21 20 20 20 20 21 21 21 21 20 19 19 20 19 19 19 20 20 21 22 24 27 31 34 34 33 31 30 30 29 28
15 15 15 14 14 14 14 12 11 10 10 11 11 11 12 14 15 14 13 13 13 14 14 16 16 16 16 17 16 16 16 15 14 13 14 16 17 17 17 18 19 21 20 19 17 17 18 21 24 25 25 24 23 23 22 21 21 20 19 18 18 20 21 23 24 24 22 21 21 21 20 20 20 20 21 21 22 25 28 32 33 33 32 31 31 30 29
14 13 12 12 13 14 15 14 12 12 12 12 12 12 13 14 13 13 13 13 12 12 12 14 15 15 15 15 15 15 15 14 14 14 15 15 16 16 17 19 19 20 20 20 18 16 15 16 18 20 20 19 19 20 21 21 20 20 20 19 18 18 19 20 22 24 24 23 22 23 23 22 21 21 21 21 21 21 23 25 28 30 32 32 31 30 29
14 13 12 12 13 14 15 15 15 15 14 14 13 13 13 12 12 12 13 13 12 11 11 11 12 13 13 13 12 13 13 13 13 14 14 15 15 15 16 17 18 18 18 18 17 16 15 15 16 17 18 17 17 18 19 20 19 18 18 18 19 20 20 20 19 20 21 22 22 23 23 23 23 22 22 22 22 22 22 22 24 26 29 30 30 29 29
Wind_Direction
323 306 292 287 280 256 254 260 254 239 224 217 215 220 209 161 207 244 191 158 214 232 230 232 218 213 232 241 255 269 256 208 180 183 218 232 231 221 209 210 209 207 211 208 202 201 196 191 191 192 195 197 197 198 196 194 196 197 191 190 193 194 194 198 204 207 208 207 205 205 204 206 209 209 209 210 211 211 212 214 215 217 218 219 222 225 227
311 297 288 289 285 269 263 259 257 255 247 236 228 226 220 208 227 245 194 170 215 224 225 234 230 221 245 272 299 282 250 198 172 181 213 223 224 223 218 216 214 213 213 206 202 201 197 195 195 194 196 197 197 197 195 193 196 196 194 196 198 196 199 205 208 210 209 207 206 206 206 208 211 211 211 212 212 212 214 215 215 216 217 217 217 221 224
298 294 294 297 300 292 282 272 260 256 257 253 245 235 227 219 227 236 220 205 223 215 216 234 226 185 225 261 260 255 245 226 213 235 252 244 232 227 226 227 225 223 219 207 199 198 198 200 198 197 199 198 197 197 195 194 196 195 194 197 198 199 205 208 208 208 208 207 207 207 209 210 211 211 212 212 213 214 215 215 215 216 218 217 216 218 220
277 284 330 321 320 308 280 265 257 254 254 250 244 235 229 223 225 232 228 228 230 200 197 245 236 185 205 228 242 256 265 275 269 266 272 274 273 266 250 244 238 231 226 213 202 202 202 199 198 199 200 197 195 195 194 194 194 192 192 195 199 203 207 206 206 206 205 206 207 207 208 209 209 210 211 212 212 213 213 213 213 215 217 217 217 218 218
273 274 328 331 323 293 263 254 244 242 245 246 244 238 229 224 224 230 231 232 231 200 196 232 238 224 225 230 235 249 259 266 268 263 264 274 286 286 273 260 248 235 230 219 210 207 202 197 199 201 199 195 195 197 197 193 189 188 192 196 200 205 205 203 204 205 204 204 206 207 208 208 208 209 210 211 212 212 213 213 212 214 216 217 218 219 218
276 286 320 322 280 241 255 283 232 237 245 245 244 242 234 224 222 234 246 246 235 212 198 212 227 232 236 237 226 220 230 234 231 241 250 261 282 287 281 271 262 249 239 228 217 212 207 205 204 201 198 199 201 201 197 192 190 193 197 199 201 204 203 203 204 204 204 205 206 207 207 206 206 207 209 212 214 214 214 213 212 214 216 217 219 220 219
274 299 313 268 231 230 300 332 358 278 260 247 243 242 236 227 224 231 242 243 237 212 201 215 229 232 229 176 161 179 193 213 220 232 246 252 275 290 292 288 282 272 256 240 225 214 211 209 203 195 195 199 200 197 193 191 195 199 200 201 203 203 201 202 204 203 204 205 205 205 204 203 205 207 210 212 213 213 213 213 213 214 215 216 218 219 220
258 273 244 230 238 326 315 318 7 355 318 327 272 246 234 225 219 218 226 236 241 220 211 224 237 223 135 102 126 180 186 196 212 227 241 254 277 290 296 297 294 288 277 261 242 221 207 203 199 195 194 193 191 189 190 192 195 198 199 201 202 201 200 202 204 204 204 205 204 204 202 202 205 207 209 211 211 209 211 213 215 215 215 217 217 218 220
236 244 251 258 309 319 299 305 42 16 335 348 319 256 247 237 221 212 213 225 231 220 212 227 228 112 142 192 203 191 184 191 208 220 233 255 279 293 296 296 295 294 287 272 253 228 202 195 195 192 187 184 183 182 185 190 193 194 197 198 198 200 201 202 203 204 205 205 203 202 201 202 206 208 210 211 210 208 210 213 215 215 216 217 217 217 220
225 247 264 265 271 274 238 126 62 344 306 281 257 245 268 255 226 215 212 216 223 213 189 187 171 151 200 237 218 181 177 181 186 193 209 238 284 310 311 308 309 310 300 274 246 223 202 194 192 187 181 179 178 178 182 188 190 192 195 197 199 202 204 204 204 205 207 207 205 202 202 205 208 209 210 212 210 209 211 214 217 218 218 218 218 217 218
218 227 245 244 242 248 158 110 1 329 322 274 237 246 255 273 281 239 223 219 220 208 180 168 163 168 214 240 217 165 164 171 172 174 174 127 29 359 352 349 344 337 326 293 215 196 194 192 189 186 182 178 180 183 185 188 189 191 197 200 202 204 207 207 207 207 207 208 207 206 207 209 209 210 211 212 211 211 214 217 219 220 220 220 220 218 219
220 223 239 242 242 266 285 328 352 333 325 223 215 240 248 2 346 322 276 247 235 211 175 164 170 188 216 236 177 141 146 155 155 152 139 93 44 23 23 22 24 26 30 48 68 83 97 162 187 186 180 178 184 186 184 187 192 197 203 206 208 210 211 211 210 208 207 208 209 209 210 211 210 209 209 211 211 212 215 218 220 222 223 224 224 222 222
220 222 238 252 249 252 272 299 342 333 305 227 212 230 280 331 318 319 309 284 276 256 181 177 184 193 181 99 114 128 137 145 142 132 122 98 60 44 39 36 49 60 58 59 60 51 32 23 182 184 179 177 182 181 179 188 199 204 209 214 214 215 215 213 211 209 210 211 213 213 214 214 213 212 212 213 214 214 215 217 219 223 224 227 229 229 226
223 219 227 251 255 204 230 291 324 322 261 237 232 287 310 308 308 315 306 289 293 289 237 212 182 133 116 110 119 129 133 137 135 128 124 105 74 62 54 46 54 65 65 63 60 51 37 33 67 168 173 168 165 164 167 177 192 205 214 217 215 214 213 211 210 210 212 214 215 215 216 215 214 215 216 216 216 215 215 217 222 225 226 229 233 235 232
224 224 219 235 241 152 147 274 278 191 222 291 346 321 306 306 312 312 304 296 296 277 248 238 110 126 130 125 125 126 127 129 128 124 119 99 74 67 64 56 58 64 66 63 58 51 45 43 57 107 133 125 115 118 111 94 108 175 212 218 215 214 213 212 212 213 215 217 217 216 217 215 214 217 217 216 216 215 214 216 222 227 228 228 232 235 234
214 219 216 220 188 126 155 231 240 201 250 330 346 309 301 309 310 304 302 302 296 267 213 164 141 139 132 130 132 130 127 126 123 118 110 98 84 76 72 70 69 67 68 68 62 56 52 51 59 81 98 98 94 91 80 68 93 119 156 202 208 212 213 214 217 218 220 221 219 219 220 218 218 220 219 217 218 218 217 219 224 229 231 228 228 230 231
248 259 261 247 114 127 172 220 244 258 280 328 320 291 295 305 306 304 302 299 291 251 167 145 142 145 141 137 135 131 127 125 122 117 109 100 95 88 83 84 84 79 75 74 71 65 61 60 63 71 84 93 91 84 77 75 81 87 121 175 193 206 212 216 220 222 223 224 223 223 223 220 220 222 220 220 222 221 220 222 224 228 230 228 226 227 227
292 287 267 229 167 152 167 190 206 232 288 23 351 329 326 314 309 312 306 294 275 197 160 145 145 153 149 139 131 126 125 122 117 112 105 98 95 93 90 90 89 88 84 79 76 73 67 65 67 69 75 84 85 81 75 74 74 78 93 115 137 174 200 213 221 223 226 229 228 226 225 223 223 224 222 222 224 221 220 224 226 228 230 228 226 226 227
292 276 239 222 196 169 162 170 179 156 81 55 39 20 352 320 316 338 341 305 248 171 153 145 145 147 141 134 130 126 121 118 114 108 102 97 93 88 88 89 88 89 86 80 77 76 72 68 68 69 70 73 75 72 66 63 67 71 75 82 90 89 97 146 206 222 230 236 236 233 230 230 231 231 229 228 229 227 227 229 230 230 231 231 228 228 230
275 282 276 256 223 177 155 166 181 158 99 71 60 46 10 331 339 26 27 10 175 141 134 133 134 135 134 131 128 123 119 116 112 107 102 98 93 87 85 87 88 86 83 79 77 75 71 68 67 67 68 68 67 65 64 65 70 72 71 74 76 73 71 76 73 73 229 244 249 246 242 241 242 241 240 238 239 238 237 235 235 235 234 232 231 231 232
289 294 277 233 199 174 155 156 148 123 103 80 70 63 40 10 20 53 55 44 38 95 123 127 127 128 127 124 121 118 117 113 109 109 106 100 96 92 89 87 86 84 82 80 77 72 68 65 65 65 66 66 66 66 67 73 81 86 88 89 86 80 76 72 63 52 43 324 270 263 264 265 262 261 261 257 255 255 251 245 241 239 238 236 235 235 234
267 267 244 216 201 175 163 159 132 112 105 83 68 63 55 44 38 52 63 51 28 29 65 106 123 124 118 117 117 112 108 108 106 105 102 98 95 92 89 88 87 84 83 82 79 75 71 67 66 66 64 63 64 64 64 69 76 85 93 92 85 79 73 66 57 51 45 35 26 19 356 329 311 304 297 285 275 270 267 262 255 249 245 243 240 238 236
245 254 256 250 245 138 144 144 112 97 92 79 70 58 49 49 42 39 55 59 43 29 33 58 94 104 100 106 111 104 97 94 91 88 89 89 89 88 87 88 86 83 81 80 78 76 74 70 68 66 62 60 59 60 62 67 72 79 86 87 84 80 75 70 67 65 61 54 50 48 38 22 354 323 314 312 306 294 283 276 271 266 259 254 249 244 239
258 268 277 276 261 184 144 124 100 87 77 74 73 60 45 48 47 39 46 53 48 42 41 47 59 69 71 79 87 89 89 85 80 80 80 76 75 76 76 76 76 75 74 73 72 72 71 69 66 62 58 54 51 53 56 62 67 71 73 75 75 73 70 69 69 69 68 66 65 62 51 25 351 315 307 310 328 344 340 315 291 278 273 270 265 257 249
256 265 280 287 260 169 135 110 88 79 73 71 69 58 48 50 55 57 55 46 37 36 39 40 38 39 45 56 67 76 83 81 79 80 78 71 66 65 63 61 63 66 68 68 70 69 67 64 61 59 55 50 46 47 49 52 58 61 61 61 60 56 53 55 56 56 58 60 60 55 40 26 16 4 356 341 331 341 345 342 331 311 292 286 283 277 269
250 259 274 275 233 181 144 101 81 77 73 68 60 53 54 58 64 70 70 58 43 33 28 36 47 44 39 39 50 63 70 75 77 78 75 69 63 61 60 61 63 66 68 68 68 67 65 62 60 57 53 48 44 45 48 51 56 60 61 61 60 56 54 56 57 55 56 57 57 53 38 23 9 354 351 347 330 323 328 335 341 335 320 312 307 295 283
255 255 250 236 215 198 143 106 108 100 85 75 63 47 44 52 66 76 74 67 60 48 26 15 46 70 61 43 33 46 64 73 76 75 73 71 69 67 69 72 72 71 71 68 67 67 66 64 61 58 53 46 44 45 48 50 54 56 57 57 56 53 52 55 58 57 55 52 47 41 35 23 4 351 347 346 345 344 335 332 330 322 317 317 314 299 282
265 246 230 224 202 145 115 116 118 104 91 88 81 59 38 27 41 65 69 64 66 62 38 15 30 72 78 55 30 31 53 64 68 69 69 71 73 75 76 78 76 75 73 69 66 66 65 63 61 58 50 44 44 46 47 49 51 51 51 50 50 48 46 46 48 49 46 42 32 23 23 18 6 6 13 15 16 18 12 360 350 335 324 322 321 314 302
241 215 212 224 180 129 120 118 105 93 92 96 96 83 61 31 27 49 56 52 58 66 51 28 33 53 64 57 39 28 37 55 66 69 66 62 61 63 68 72 72 70 68 65 62 60 60 58 55 52 45 42 45 48 50 52 54 53 52 50 47 44 41 37 39 43 43 38 27 16 14 15 12 14 19 21 20 20 16 9 356 337 336 353 10 4 354
185 169 157 154 137 121 117 111 97 95 99 107 108 100 88 63 43 50 48 35 41 56 52 41 48 53 54 57 58 52 50 60 68 71 70 63 54 48 50 58 61 60 58 57 55 55 56 56 53 49 43 42 46 50 52 54 56 55 55 53 48 45 46 46 46 48 48 40 28 18 14 16 21 22 19 18 18 15 9 3 349 334 346 18 37 34 27
130 138 139 136 122 108 102 98 94 94 100 112 114 108 101 88 69 62 56 38 39 57 61 60 65 66 65 72 79 78 73 68 66 67 67 63 55 49 50 56 61 61 56 53 51 51 54 56 56 52 48 47 49 53 54 56 58 57 55 54 49 44 47 52 50 50 53 48 36 26 20 20 28 31 25 21 22 19 17 16 8 1 9 17 27 40 46
112 119 122 116 105 98 95 91 93 100 105 107 100 99 102 99 83 71 68 57 55 65 66 65 71 75 75 76 79 77 72 68 65 64 63 59 54 51 52 57 62 63 59 54 51 48 47 50 51 51 51 50 49 50 50 52 55 55 53 54 53 48 47 49 48 49 56 54 46 37 27 20 29 35 29 22 22 24 33 40 29 20 22 15 11 29 57
121 127 125 115 107 107 105 98 99 106 107 103 92 90 98 101 96 89 82 73 70 75 77 75 76 77 71 66 66 68 67 65 63 60 57 52 48 47 50 55 60 60 57 55 53 49 43 40 44 50 53 52 49 47 47 49 51 51 49 49 49 46 43 42 39 39 45 48 45 44 37 28 34 43 37 27 24 24 34 47 38 23 26 28 23 32 67
104 109 113 108 106 113 116 112 110 112 109 104 99 92 88 94 99 98 90 80 75 75 74 70 68 70 68 63 59 60 62 63 59 53 50 49 47 47 51 57 60 59 56 53 52 50 44 38 40 47 51 51 49 46 44 45 47 49 48 46 44 40 36 35 33 31 31 34 36 39 41 34 33 43 46 42 39 34 34 44 46 32 26 31 35 43 67
90 84 84 86 94 107 113 111 111 114 114 110 104 98 92 94 97 93 87 81 75 70 67 65 63 65 65 61 60 60 60 59 57 54 53 53 50 49 53 56 57 57 54 49 46 46 42 39 43 49 50 47 44 41 40 41 44 47 48 48 46 41 36 35 36 32 28 26 27 29 35 35 29 32 44 52 59 60 50 44 47 50 45 42 45 52 63
78 81 83 83 84 89 92 92 96 103 106 105 103 100 96 94 93 90 86 79 71 66 67 68 67 64 61 59 61 64 62 61 60 58 56 55 52 50 51 50 48 50 51 45 38 36 37 43 51 56 52 46 42 39 39 43 45 47 49 50 49 49 44 39 39 38 32 28 26 21 21 27 27 26 32 42 53 67 75 70 61 64 65 63 62 64 65
63 71 79 80 76 77 78 78 79 83 84 86 87 88 87 86 83 80 78 74 68 64 65 69 70 68 65 66 68 69 67 66 63 58 53 54 55 54 53 48 44 44 46 39 31 29 36 49 56 56 51 46 42 38 38 44 46 45 45 44 44 50 51 45 42 42 38 34 33 26 17 19 25 24 24 28 34 42 62 85 88 75 67 69 75 78 75
52 58 65 69 70 70 70 70 72 74 74 74 73 73 75 76 74 70 69 70 71 71 72 73 71 69 67 66 66 65 65 64 63 59 56 57 60 60 57 51 46 42 37 30 26 28 36 48 55 53 48 44 43 40 44 51 52 46 43 41 38 40 45 43 40 41 40 35 35 34 29 23 23 23 22 21 21 20 24 38 63 72 72 79 91 95 91
45 47 51 58 64 67 67 68 69 69 69 69 66 66 69 74 76 75 71 69 70 72 72 70 68 65 62 60 57 56 55 56 58 56 52 52 57 61 57 48 41 38 37 36 34 33 36 41 46 46 43 42 44 46 51 55 54 49 46 45 40 36 38 39 37 38 40 39 37 37 37 33 31 31 30 25 21 21 17 12 19 40 59 76 95 103 104
46 47 49 54 60 65 66 65 62 60 62 63 64 65 67 70 72 72 67 63 66 68 67 66 66 64 58 56 56 54 51 51 51 48 45 49 55 59 55 43 33 31 38 42 40 36 37 39 39 39 41 43 48 54 57 58 56 52 50 49 46 42 40 39 38 37 38 40 40 38 37 37 39 41 40 35 30 30 26 14 8 16 33 54 80 101 111
51 52 53 54 55 57 61 63 60 57 57 59 62 65 68 69 69 66 61 59 64 65 64 65 68 68 62 63 64 60 56 55 53 49 49 52 54 56 56 43 29 31 44 50 46 39 38 38 36 36 40 44 51 60 64 62 57 54 53 51 49 47 45 43 43 42 40 40 43 42 39 37 38 38 36 39 41 38 34 30 22 1 350 110 124 120 112
56 56 56 55 54 55 60 64 63 59 56 55 58 62 66 68 70 70 66 63 65 67 65 65 68 68 66 65 65 61 58 59 60 58 58 57 55 56 58 46 35 42 53 55 48 41 39 38 37 41 47 51 56 63 66 62 54 50 50 49 46 46 46 45 44 44 43 43 45 44 41 39 37 33 30 35 41 39 33 28 21 7 354 213 164 148 129
57 56 53 53 56 60 63 65 66 64 58 54 54 57 60 61 62 64 64 60 59 61 62 60 60 59 57 57 57 53 49 51 57 62 64 61 56 56 57 51 45 50 55 54 48 45 43 40 43 52 59 61 62 64 64 60 53 49 48 48 46 46 46 44 42 41 41 40 40 41 41 41 39 36 33 35 37 37 35 33 27 19 12 5 140 148 136
52 54 53 54 57 60 62 62 63 64 62 56 52 53 54 53 51 53 57 56 53 51 50 50 49 50 50 52 53 49 40 36 42 52 62 62 55 51 51 52 51 53 54 53 51 49 47 46 53 62 66 66 67 67 66 62 58 55 54 53 51 50 50 48 46 45 43 40 40 41 43 43 41 39 38 39 38 37 37 37 36 34 29 21 44 115 123
46 48 51 55 56 55 57 60 64 67 68 64 56 50 47 49 50 50 52 54 52 48 46 46 47 48 49 51 53 53 50 46 41 41 51 62 58 47 47 51 54 55 57 57 55 52 52 56 63 68 69 69 70 70 67 63 61 60 58 57 57 57 56 54 52 50 49 47 46 45 46 46 45 42 41 41 40 39 38 38 40 43 43 42 46 63 82
42 44 49 53 54 53 54 60 65 66 66 64 57 47 43 49 53 52 52 54 55 52 49 49 50 50 51 52 54 55 56 56 54 49 50 58 62 56 54 58 60 61 62 62 57 52 55 63 67 69 69 70 69 67 64 61 60 59 58 57 57 57 57 58 57 55 54 53 52 51 50 50 50 49 49 49 48 46 43 42 42 46 49 52 53 55 59
45 47 49 51 53 53 55 57 58 56 56 58 56 46 43 49 54 54 54 56 57 56 54 52 50 49 50 50 49 45 44 52 56 51 44 45 53 57 56 60 65 67 67 67 65 62 64 68 69 68 70 71 68 64 60 59 58 56 55 54 53 52 53 55 55 55 55 54 54 54 55 55 54 53 54 55 53 51 48 46 44 46 50 52 52 51 51
53 53 53 53 52 52 54 57 57 54 51 56 62 56 50 52 54 53 51 53 55 56 55 54 51 48 47 48 47 43 40 44 52 45 34 33 44 52 53 61 71 75 73 70 69 70 72 74 73 71 71 72 69 63 59 59 57 55 53 51 50 48 47 47 48 49 50 50 50 50 52 53 53 53 53 54 53 53 54 54 53 53 54 54 52 50 47
52 51 51 50 47 44 48 55 58 56 53 56 58 54 51 54 55 49 44 46 52 53 53 51 49 46 45 46 45 43 43 47 50 47 40 43 51 56 56 63 72 76 74 69 66 67 71 76 77 75 73 71 69 66 63 62 60 58 55 53 52 52 51 51 52 52 51 50 50 50 49 48 48 49 50 51 53 55 58 60 60 60 59 59 57 55 53
52 52 51 50 48 47 49 53 54 52 50 51 51 50 53 57 55 45 36 39 47 51 51 50 47 42 40 42 42 41 42 44 46 48 52 56 58 59 60 63 68 72 73 71 65 60 61 67 71 73 72 70 68 68 67 65 63 62 59 56 55 56 57 58 60 60 57 54 54 54 53 50 50 50 51 52 53 55 59 61 63 63 63 62 61 58 56
52 55 58 60 60 59 58 57 54 52 51 50 50 53 58 63 61 51 40 38 42 47 49 49 45 39 36 38 38 38 38 39 40 43 49 53 53 55 59 63 65 68 70 68 62 56 52 53 57 63 66 66 66 67 69 68 66 65 63 60 58 58 57 57 59 61 61 61 59 59 58 57 55 54 54 54 54 54 56 57 59 62 64 64 64 63 61
54 54 57 62 64 62 59 56 53 51 51 52 53 54 59 65 66 59 48 41 41 45 48 49 46 39 35 34 36 36 35 37 38 40 42 45 46 48 51 54 56 58 60 59 56 54 54 51 51 55 60 61 60 63 67 67 67 65 64 63 63 64 65 64 62 61 61 62 61 61 61 59 57 56 57 57 57 58 58 59 59 62 64 64 64 64 63